Other Public Products
Issued by NWS Grand Forks, ND

Home | Current Version | Previous Version | Graphics & Text | Print | Product List | Glossary On
Versions: 1 2 3 4 5 6 7 8 9 10 11 12 13 14 15 16 17 18 19 20 21 22 23 24 25 26 27 28 29 30 31 32 33 34 35 36 37 38 39 40 41 42 43 44 45 46 47 48 49 50
000
FPUS83 KFGF 241731
OPUFGF
PRAIRIE TO PINES WEATHER ROUNDUP
NATIONAL WEATHER SERVICE EASTERN NORTH DAKOTA/GRAND FORKS ND
1200 PM CDT TUE MAY 24 2016

 **SATELLITE DATA USED TO AUGMENT SKY COVER AT AUTOMATED STATIONS**
 *****  WEATHER ACROSS EASTERN NORTH DAKOTA  *****

CITY           SKY/WX    TMP DP  RH WIND       PRES   REMARKS
GRAND FORKS    MOSUNNY   72  51  47 CALM      29.85R
GRAND FORKS AF SUNNY     71  53  53 VRB6      29.86R
GRAND CITY NWS   N/A     75 N/A N/A SW5         N/A
BUXTON           N/A     76  55  46 W2          N/A
DEVILS LAKE    SUNNY     70  42  36 SE6       29.89R
FARGO          SUNNY     80  44  27 S9        29.85R
WAHPETON ARPT  SUNNY     77  46  33 SE9       29.85S
$$

 *****  WEATHER ACROSS CENTRAL AND WESTERN NORTH DAKOTA  *****

CITY           SKY/WX    TMP DP  RH WIND       PRES   REMARKS
JAMESTOWN      MOSUNNY   71  49  45 VRB3      29.88R
BISMARCK       MOSUNNY   72  44  36 W3        29.90R
MINOT          MOSUNNY   73  40  30 S14G24    29.87R
MINOT AFB      MOSUNNY   70  42  36 W12       29.86R
GARRISON         N/A     65  43  44 SW8       29.90R
WILLISTON      PTSUNNY   63  41  44 SW12      29.88S
DICKINSON      PTSUNNY   64  38  38 W6        29.91R
HETTINGER      SUNNY     66  40  38 MISG      29.93S
$$

 *****  OTHER OBSERVATIONS NORTHEAST NORTH DAKOTA  *****

CITY           SKY/WX    TMP DP  RH WIND       PRES   REMARKS
WALHALLA       FAIR      72  46  40 S5        29.87S
LANGDON        FAIR      73  46  38 SW10      29.89S
CAVALIER       FAIR      72  48  43 E6        29.87S
GRAFTON        FAIR      72  54  53 CALM      29.88R
CANDO          FAIR      72  43  35 SW13      29.90S
FORT TOTTEN      N/A     74  47  37 N3        29.95S
ROLLA            N/A     68  39  34 S9        29.89S
RUGBY          FAIR      70  41  35 SW7       29.88S
 ***** THE ABOVE OBSERVATIONS ARE NON NWS ARE NOT QUALITY
        CONTROLLED AND MAY MIS-REPORT RAIN FOR SNOW...
$$

 *****  OTHER OBSERVATIONS SOUTHEAST NORTH DAKOTA *****

CITY           SKY/WX    TMP DP  RH WIND       PRES   REMARKS
COOPERSTOWN    NOT AVBL
VALLEY CITY    FAIR      72  50  46 SW7       29.90S
OAKES            N/A    N/A N/A N/A MISG        N/A
GWINNER        FAIR      79  46  31 NE5       29.86S
SHEYENNE NWR     N/A     80  47  30 SW3       29.95S
BUFFALO          N/A     74  46  36 W5          N/A
WYNDMERE         N/A     79  50  36 E8          N/A
 ***** THE ABOVE OBSERVATIONS ARE NON NWS ARE NOT QUALITY
       CONTROLLED AND MAY MIS-REPORT RAIN FOR SNOW...
$$

  *****  WEATHER ACROSS NORTHERN MINNESOTA  *****

CITY           SKY/WX    TMP DP  RH WIND       PRES   REMARKS
FLAG ISLAND    CLOUDY    63  52  67 NW8       29.85R
WARROAD        SUNNY     70  54  56 N6        29.86S
ROSEAU         SUNNY     72  52  49 N6        29.86R
HALLOCK        MOSUNNY   72  52  49 SE5       29.86R
THF RVR FALLS  SUNNY     72  48  43 S9        29.87S
HALSTAD        NOT AVBL
FOSSTON          N/A     72  50  46 SW10G16   29.88R
BAUDETTE       MOSUNNY   72  49  44 NW9       29.85R
WASKISH        SUNNY     73  52  46 CALM      29.85S
CROOKSTON      SUNNY     72  54  53 W6        29.87R
$$
  *****  WEATHER ACROSS CENTRAL AND WEST MINNESOTA  *****

CITY           SKY/WX    TMP DP  RH WIND       PRES   REMARKS
BEMIDJI        SUNNY     73  51  46 S8        29.87R
PARK RAPIDS    MOSUNNY   74  49  41 VRB5      29.88S
WADENA         SUNNY     73  54  49 E3        29.88F
DETROIT LAKES  SUNNY     72  52  49 SE13      29.89R
MOORHEAD       SUNNY     79  45  29 S3G9      29.86R
FERGUS FALLS   SUNNY     73  55  53 E8        29.83F
ELBOW LAKE     FAIR      77  56  49 SE5       29.87S
MORRIS MN      SUNNY     79  57  47 CALM      29.85S
STAPLES        SUNNY     75  46  35 CALM      29.89S
WHEATON        MOSUNNY   82  55  39 SE5       29.86S
$$
  *****  WEATHER ELSEWHERE ACROSS MINNESOTA  *****

CITY           SKY/WX    TMP DP  RH WIND       PRES   REMARKS
DULUTH         MOSUNNY   67  57  70 SE6       29.88R
INTRNTL FALLS  SUNNY     71  50  47 W8        29.85F
ELY            SUNNY     70  55  60 CALM      29.89R
CLOQUET        PTSUNNY   70  55  60 CALM      29.89R
BRAINERD       SUNNY     74  53  48 N12       29.90R
HIBBING        SUNNY     71  50  47 VRB3      29.87R
ALEXANDRIA     SUNNY     75  58  55 E6        29.89R
SAINT CLOUD    SUNNY     72  63  73 S3        29.88R
MINNEAPOLIS    CLOUDY    76  62  62 NW8       29.88R
$$

  *****  WEATHER ACROSS SOUTH DAKOTA  *****

CITY           SKY/WX    TMP DP  RH WIND       PRES   REMARKS
SIOUX FALLS    MOSUNNY   75  61  61 CALM      29.87S
BROOKINGS      SUNNY     69  62  78 S5        29.88R
WATERTOWN      SUNNY     71  61  70 SW6       29.88R
HURON          SUNNY     74  55  51 CALM      29.86R
SISSETON         N/A     78  56  46 VRB7      29.84S
ABERDEEN       SUNNY     76  53  44 SE12      29.85S
MITCHELL       SUNNY     77  54  44 CALM      29.86R
PIERRE         SUNNY     73  53  49 VRB3      29.86S
MOBRIDGE       SUNNY     72  44  36 N3        29.87S
RAPID CITY     MOSUNNY   65  42  43 E9        29.92S
$$

  *****  SOME WEATHER IN NEARBY STATES *****

CITY           SKY/WX    TMP DP  RH WIND       PRES   REMARKS
GLASGOW MT     CLOUDY    56  43  61 W10       29.86S
GREAT FALLS MT PTSUNNY   49  37  63 CALM      29.91F
CHEYENNE WY    SUNNY     59  43  55 S22G30    29.98F
SCOTTSBLUFF NE MOSUNNY   67  47  48 SE9       29.94S
OMAHA NE       PTSUNNY   75  63  66 N7        29.89R
DES MOINES IA  CLOUDY    73  63  70 W3        29.92F
DAVENPORT IA   PTSUNNY   82  60  47 S14       29.96S
CHICAGO IL     MOSUNNY   80  54  40 SW15      29.99S
EAU CLAIRE WI  CLOUDY    73  62  68 SW7       29.89R
LA CROSSE WI   CLOUDY    76  60  57 S6        29.92R
$$

  *****  SOME NATIONAL WEATHER *****

CITY           SKY/WX    TMP DP  RH WIND       PRES   REMARKS
LA GUARDIA NY  CLOUDY    68  60  75 VRB5      29.92S
RALEIGH NC     MOSUNNY   79  55  43 VRB5      30.11F
ATLANTA GA     PTSUNNY   81  52  36 VRB3      30.17S
NEW ORLEANS LA PTSUNNY   86  68  54 S7        30.09S
OKLAHOMA CITY  MOSUNNY   84  71  65 S15G24    29.90S
ALBUQUERQUE NM MOSUNNY   72  24  16 W6        30.02F
SALT LAKE CITY PTSUNNY   68  31  25 S17       29.79F
LOS ANGELES CA PTSUNNY   64  54  68 W9        30.00R
BOISE ID       MOSUNNY   60  41  49 W7        29.86F
SEATTLE WA     CLOUDY    57  51  80 W5        29.99R
$$

*** WEATHER ACROSS MANITOBA...SASKATCHEWAN AND ONTARIO ***
                ***ONTARIO***

CITY           SKY/WX    TMP DP  RH WIND       PRES   REMARKS
GERALDTON      CLOUDY    54  39  58 NE13G20   29.99R
THUNDER BAY    LGT RAIN  57  57 100 NE12G18   29.88F VSB 3/8
SIOUX LOOKOUT  CLOUDY    63  54  72 SE8       29.90R
TORONTO        MOSUNNY   79  48  34 SE9       29.96F
BIG TROUT LK   CLOUDY    41  34  75 E7        30.11S
PICKLE LAKE    PTSUNNY   48  39  71 E14       30.01R
DRYDEN         PTSUNNY   66  57  72 E10       29.87R
KENORA         CLOUDY    72  45  37 NW8       29.86
$$
                *** MANITOBA***

CITY           SKY/WX    TMP DP  RH WIND       PRES   REMARKS
BRANDON        MOSUNNY   70  43  37 W12G20    29.85R
DAUPHIN        PTSUNNY   61  52  72 VRB2      29.87R
ISLAND LAKE    CLOUDY    43  39  87 E8        30.06S
PILOT MOUND      N/A     70  46  43 S5          N/A
THE PAS        CLOUDY    46  39  76 E9G20     29.99R
THOMPSON       CLOUDY    36  30  80 E6        30.11R
WINNIPEG       PTSUNNY   64  48  55 S7        29.87R
LYNN LAKE      CLOUDY    41  37  87 SE9       30.03F
CHURCHILL      CLOUDY    32  21  64 NW9       30.18S WCI  24
GILLAM         MOSUNNY   36  23  60 VRB5      30.15F
$$
                ***SASKATCHEWAN***

CITY           SKY/WX    TMP DP  RH WIND       PRES   REMARKS
ESTEVAN        PTSUNNY   64  41  42 SW22      29.84S
KINDERSLEY     CLOUDY    48  46  93 NE10G17   29.84R
LLOYDMINSTER   CLOUDY    52  46  82 E8        29.88S
PRINCE ALBERT  DRIZZLE   48  45  87 E12G18    29.90
REGINA         PTSUNNY   57  41  54 SW15      29.80R
YORKTON        MOSUNNY   63  46  55 SE10G17   29.83R  C1F1C2F2C3F3C4F4C5F5C6F6C7F7C8F8C9F9CaFaCbFbCcFcCdFdCe!



USA.gov is the U.S. government's official web portal to all federal, state and local government web resources and services.